Weather History for KHKS - April, 2014

Change the Weather History Date:

Wednesday, April 23, 2014

  Actual Average (KJAN) Record (KJAN)
Temperature  
Mean Temperature 68 °F 66 °F  
Max Temperature 82 °F 78 °F 93 °F (1925)
Min Temperature 55 °F 54 °F 35 °F (1903)
Degree Days  
Heating Degree Days 0 2  
Month to date heating degree days 96  
Since 1 July heating degree days 2366  
Cooling Degree Days 3 3  
Month to date cooling degree days 54  
Year to date cooling degree days 91  
Growing Degree Days 18 (Base 50)    
Moisture  
Dew Point 52 °F    
Average Humidity 68    
Maximum Humidity 94    
Minimum Humidity 25    
Precipitation  
Precipitation 0.00 in 0.14 in 2.03 in (1988)
Month to date precipitation 3.97  
Year to date precipitation 18.74  
Sea Level Pressure  
Sea Level Pressure 29.94 in    
Wind  
Wind Speed 2 mph (North)    
Max Wind Speed 7 mph    
Max Gust Speed -    
Visibility 7 miles    
Events Fog    
T = Trace of Precipitation, MM = Missing Value Source: NWS Daily Summary

Daily Weather History Graph

Daily Weather History Graph

Search for Another Location

Airport or City:

Trip Planner

Search our weather history database for the weather conditions in past years. The results will help you decide how hot, cold, wet, or windy it might be!

Date:

Astronomy

Apr. 23, 2014 Rise Set
Actual Time 6:22 AM CDT 7:36 PM CDT
Civil Twilight 5:57 AM CDT 8:01 PM CDT
Nautical Twilight 5:26 AM CDT 8:32 PM CDT
Astronomical Twilight 4:55 AM CDT 9:04 PM CDT
Moon 2:33 AM CDT (4/23) 2:04 PM CDT (4/23)
Length of Visible Light 14h 04m
Length of Day
13h 13m
Waning Crescent, 34% of the Moon is Illuminated
Apr 23
Waning Crescent
Apr 29
New
May 6
First Quarter
May 14
Full
May 21
Last Quarter

Hourly Weather History & Observations

Time (CDT) Temp. Dew Point Humidity Pressure Visibility Wind Dir Wind Speed Gust Speed Precip Events Conditions
12:53 AM 64.0 °F 59.0 °F 84% 29.94 in 10.0 mi NW 4.6 mph - N/A   Clear
1:53 AM 63.0 °F 57.9 °F 84% 29.93 in 9.0 mi NW 3.5 mph - N/A   Clear
2:53 AM 60.1 °F 57.0 °F 90% 29.92 in 6.0 mi Calm Calm - N/A   Clear
3:22 AM 60.8 °F 57.2 °F 88% 29.95 in 1.5 mi Calm Calm - N/A   Clear
3:30 AM 59.0 °F 55.4 °F 88% 29.95 in 0.5 mi Calm Calm - N/A Fog Fog
3:37 AM 60.8 °F 57.2 °F 88% 29.95 in 2.0 mi NW 3.5 mph - N/A   Clear
3:44 AM 60.8 °F 57.2 °F 88% 29.95 in 6.0 mi Calm Calm - N/A   Clear
3:53 AM 57.9 °F 55.0 °F 90% 29.94 in 4.0 mi Calm Calm - N/A   Clear
4:53 AM 59.0 °F 55.9 °F 90% 29.95 in 4.0 mi Calm Calm - N/A   Clear
5:20 AM 55.4 °F 53.6 °F 94% 29.97 in 1.5 mi Calm Calm - N/A   Partly Cloudy
5:24 AM 55.4 °F 53.6 °F 94% 29.97 in 0.2 mi Calm Calm - N/A Fog Fog
5:35 AM 57.2 °F 53.6 °F 88% 29.97 in 1.0 mi NNW 3.5 mph - N/A   Mist
5:37 AM 57.2 °F 55.4 °F 94% 29.97 in 2.5 mi Calm Calm - N/A   Partly Cloudy
5:44 AM 57.2 °F 53.6 °F 88% 29.97 in 5.0 mi Calm Calm - N/A   Partly Cloudy
5:53 AM 57.0 °F 54.0 °F 89% 29.95 in 7.0 mi Calm Calm - N/A   Clear
6:07 AM 55.4 °F 53.6 °F 94% 29.97 in 2.5 mi Calm Calm - N/A   Clear
6:16 AM 55.4 °F 53.6 °F 94% 29.98 in 7.0 mi Calm Calm - N/A   Clear
6:53 AM 55.9 °F 53.1 °F 90% 29.97 in 6.0 mi NW 4.6 mph - N/A   Clear
7:53 AM 63.0 °F 53.1 °F 70% 29.99 in 10.0 mi NE 4.6 mph - N/A   Clear
8:53 AM 66.9 °F 51.1 °F 57% 29.99 in 10.0 mi ENE 4.6 mph - N/A   Clear
9:53 AM 72.0 °F 50.0 °F 46% 30.00 in 10.0 mi Calm Calm - N/A   Clear
10:53 AM 75.0 °F 44.1 °F 33% 30.00 in 10.0 mi Variable 3.5 mph - N/A   Clear
12:53 PM 78.1 °F 46.0 °F 32% 29.97 in 10.0 mi Calm Calm - N/A   Clear
1:53 PM 79.0 °F 45.0 °F 30% 29.95 in 10.0 mi Calm Calm - N/A   Clear
2:53 PM 80.1 °F 44.1 °F 28% 29.93 in 10.0 mi NE 6.9 mph - N/A   Clear
3:53 PM 81.0 °F 42.1 °F 25% 29.91 in 10.0 mi ESE 4.6 mph - N/A   Clear
4:53 PM 81.0 °F 43.0 °F 26% 29.90 in 10.0 mi Calm Calm - N/A   Clear
5:53 PM 81.0 °F 43.0 °F 26% 29.88 in 10.0 mi NNE 4.6 mph - N/A   Clear
6:53 PM 79.0 °F 45.0 °F 30% 29.88 in 10.0 mi NE 3.5 mph - N/A   Clear
7:53 PM 72.0 °F 48.9 °F 44% 29.89 in 10.0 mi North - - N/A   Clear
8:53 PM 66.9 °F 51.1 °F 57% 29.90 in 10.0 mi Calm Calm - N/A   Clear
9:53 PM 64.0 °F 52.0 °F 65% 29.91 in 10.0 mi Calm Calm - N/A   Clear
10:53 PM 63.0 °F 52.0 °F 67% 29.90 in 10.0 mi Calm Calm - N/A   Clear
11:53 PM 61.0 °F 52.0 °F 72% 29.90 in 10.0 mi Calm Calm - N/A   Clear